LEMUR-2-DUNLOP (43053 NORAD) Tracking and Keplerian Element Data

This shows tracking and keplerian element data for the satellite.

Feedback or suggestion? Click here.




ElementValue
Catalog43053
NameLEMUR-2-DUNLOP
Epoch Orbit24187
Epoch Day76.20805877
Epoch Year2022
RAAN100.7529
Inclination51.5276
Eccentricity0.0010652
Argument of Perigee303.3456
Mean Anonmoly58.2728
Mean Motion16.47225911
Decay Rate0.25421876
L11 43053U 17071S 22076.20805877 .25421876 12696-4 42437-3 0 9991
L22 43053 51.5276 100.7529 0010652 303.3456 58.2728 16.47225911241877



Live tracking and technical data element details for LEMUR-2-DUNLOP (NORAD 43053). LEMUR-2-DUNLOP can be tracked NOW for your location showing map with azimuth and elevation plus other details from your city location.







IsCatalogInMostPopularTable: catalog: 43053, numindb: 709
Update: records affected: 1



GetName: 43053 LEMUR-2-DUNLOP

Hit Count: updated at: Sat, 17 May 2025 08:19:49 GMT